This is the latest recevied weather packets stored in our database for station/object DH1NAI-6. If no packets are shown the sender has not sent any weather packets the latest 10 day(s).
| Time | Temp. | Humidity | Pressure | Rain* | Wind** | Luminosity | Snow |
|---|---|---|---|---|---|---|---|
| 1778273632 | 6.11° C | 99% | 1016.5 hPa | 0 mm | - | 0 W/m² | - |
| 1778273025 | 6.11° C | 99% | 1016.5 hPa | 0 mm | - | 0 W/m² | - |
| 1778272412 | 6.11° C | 99% | 1016.5 hPa | 0 mm | - | 0 W/m² | - |
| 1778271808 | 6.11° C | 99% | 1016.4 hPa | 0 mm | - | 0 W/m² | - |
| 1778271200 | 6.11° C | 99% | 1016.5 hPa | 0 mm | - | 0 W/m² | - |
| 1778270576 | 5.56° C | 99% | 1016.6 hPa | 0 mm | - | 0 W/m² | - |
| 1778269952 | 5.56° C | 99% | 1016.6 hPa | 0 mm | - | 0 W/m² | - |
| 1778269344 | 5.56° C | 99% | 1016.5 hPa | 0 mm | - | 0 W/m² | - |
| 1778268736 | 6.11° C | 99% | 1016.4 hPa | 0 mm | - | 0 W/m² | - |
| 1778268128 | 6.11° C | 99% | 1015.9 hPa | 0 mm | - | 0 W/m² | - |
| 1778267520 | 6.11° C | 99% | 1016.1 hPa | 0 mm | - | 0 W/m² | - |
| 1778266912 | 6.67° C | 99% | 1015.9 hPa | 0 mm | - | 0 W/m² | - |
| 1778266304 | 6.67° C | 98% | 1016 hPa | 0 mm | - | 0 W/m² | - |
| 1778265692 | 7.22° C | 97% | 1016 hPa | 0 mm | - | 1 W/m² | - |
| 1778265088 | 7.78° C | 96% | 1015.8 hPa | 0 mm | - | 2 W/m² | - |
| 1778264480 | 7.78° C | 95% | 1015.6 hPa | 0 mm | - | 4 W/m² | - |
| 1778263856 | 7.78° C | 95% | 1015.7 hPa | 0 mm | - | 7 W/m² | - |
| 1778263232 | 8.33° C | 94% | 1015.4 hPa | 0 mm | - | 7 W/m² | - |
| 1778262624 | 8.33° C | 93% | 1015.5 hPa | 0 mm | - | 8 W/m² | - |
| 1778262016 | 8.89° C | 92% | 1015.5 hPa | 0 mm | - | 9 W/m² | - |
| 1778261408 | 9.44° C | 91% | 1015.4 hPa | 0 mm | - | 11 W/m² | - |
| 1778260800 | 10° C | 90% | 1015.4 hPa | 0 mm | - | 21 W/m² | - |
| 1778260192 | 10.56° C | 88% | 1015.3 hPa | 0 mm | - | 31 W/m² | - |
| 1778259585 | 10.56° C | 88% | 1015.3 hPa | 0 mm | - | 41 W/m² | - |
| 1778258972 | 10° C | 88% | 1015.3 hPa | 0 mm | - | 35 W/m² | - |
* Rain latest hour (hover to see other rain measurements)
** Current wind speed in m/s (hover to see current wind gust speed)